User: anonymous   Login
Location: Camp Creek
(33.9000°N, 111.8167°W)
Time: 11:24:13
(UTC-07:00)
Language:

DELTA 2 R/B (1) - Orbit

View from above orbital plane
View from above orbital plane
View from above satellite
View from above satellite

Ground track
Ground track

The orbit data is extracted from the following two-line orbital elements,

1 27665U 03005C   16146.72688699  .00000055  00000-0  55245-4 0  9992
2 27665  39.5761 283.0821 0010235 273.5327 233.1059 14.28407803695519
Epoch (UTC): 25 May 2016 17:26:43
Eccentricity: 0.0010235
inclination: 39.5761°
perigee height: 790 km
apogee height: 804 km
right ascension of ascending node: 283.0821°
argument of perigee: 273.5327°
revolutions per day: 14.28407803
mean anomaly at epoch: 233.1059°
orbit number at epoch: 69551

The dashed part of the orbit path shows where the satellite is in the earth's shadow,  

DLR